Time,TemperatureF,DewpointF,PressureIn,WindDirection,WindDirectionDegrees,WindSpeedMPH,WindSpeedGustMPH,Humidity,HourlyPrecipIn,Conditions,Clouds,dailyrainin,SoftwareType,DateUTC
2013-08-10 00:01:00,75.2,73.6,30.03,SE,126,6.0,8.0,95,0.00,,,0.00,meteohub,2013-08-10 04:01:00,
2013-08-10 00:02:00,75.2,73.6,30.03,ESE,110,5.0,8.0,95,0.00,,,0.00,meteohub,2013-08-10 04:02:00,
2013-08-10 00:03:00,75.0,73.4,30.03,SSE,159,4.0,8.0,95,0.00,,,0.00,meteohub,2013-08-10 04:03:00,
2013-08-10 00:04:00,75.2,73.6,30.03,SSE,148,2.0,8.0,95,0.00,,,0.00,meteohub,2013-08-10 04:04:00,
2013-08-10 00:10:00,75.2,73.6,30.03,SSE,156,4.0,8.0,95,0.00,,,0.00,meteohub,2013-08-10 04:10:00,
2013-08-10 00:15:00,75.2,73.6,30.04,SE,144,2.0,8.0,95,0.00,,,0.00,meteohub,2013-08-10 04:15:00,
2013-08-10 00:20:00,75.0,73.4,30.04,SE,136,3.0,8.0,95,0.00,,,0.00,meteohub,2013-08-10 04:20:00,
2013-08-10 00:25:00,75.0,73.4,30.04,ESE,123,3.0,8.0,95,0.00,,,0.00,meteohub,2013-08-10 04:25:00,
2013-08-10 00:30:00,75.0,73.4,30.04,SSE,153,1.0,7.0,95,0.00,,,0.00,meteohub,2013-08-10 04:30:00,
2013-08-10 00:35:00,74.8,73.2,30.04,SE,124,2.0,7.0,95,0.00,,,0.00,meteohub,2013-08-10 04:35:00,
2013-08-10 00:40:00,74.8,73.2,30.04,SE,144,1.0,7.0,95,0.00,,,0.00,meteohub,2013-08-10 04:40:00,
2013-08-10 00:45:00,74.8,73.2,30.04,ESE,121,1.0,5.0,95,0.00,,,0.00,meteohub,2013-08-10 04:45:00,
2013-08-10 00:50:00,74.8,73.2,30.04,ESE,121,1.0,5.0,95,0.00,,,0.00,meteohub,2013-08-10 04:50:00,
2013-08-10 00:55:00,74.8,73.2,30.04,ESE,121,1.0,5.0,95,0.00,,,0.00,meteohub,2013-08-10 04:55:00,
2013-08-10 01:00:00,74.8,73.2,30.04,ESE,121,1.0,3.0,95,0.00,,,0.00,meteohub,2013-08-10 05:00:00,
2013-08-10 01:05:00,74.7,73.2,30.04,ESE,121,1.0,3.0,95,0.00,,,0.00,meteohub,2013-08-10 05:05:00,
2013-08-10 01:10:00,74.7,73.4,30.04,ESE,121,2.0,3.0,96,0.00,,,0.00,meteohub,2013-08-10 05:10:00,
2013-08-10 01:15:00,74.7,73.4,30.04,ESE,120,0.0,3.0,96,0.00,,,0.00,meteohub,2013-08-10 05:15:00,
2013-08-10 01:20:00,74.7,73.4,30.04,ESE,120,2.0,4.0,96,0.00,,,0.00,meteohub,2013-08-10 05:20:00,
2013-08-10 01:26:00,74.7,73.4,30.04,ESE,120,1.0,4.0,96,0.00,,,0.00,meteohub,2013-08-10 05:26:00,
2013-08-10 01:31:00,74.8,73.6,30.04,ESE,121,4.0,4.0,96,0.00,,,0.00,meteohub,2013-08-10 05:31:00,
2013-08-10 01:36:00,74.8,73.6,30.04,ESE,117,2.0,5.0,96,0.00,,,0.00,meteohub,2013-08-10 05:36:00,
2013-08-10 01:41:00,74.8,73.6,30.04,ESE,117,0.0,5.0,96,0.00,,,0.00,meteohub,2013-08-10 05:41:00,
2013-08-10 01:46:00,74.8,73.6,30.04,ESE,117,2.0,5.0,96,0.00,,,0.00,meteohub,2013-08-10 05:46:00,
2013-08-10 01:51:00,74.8,73.6,30.04,ESE,117,1.0,4.0,96,0.00,,,0.00,meteohub,2013-08-10 05:51:00,
2013-08-10 01:56:00,74.8,73.6,30.04,ESE,117,1.0,4.0,96,0.00,,,0.00,meteohub,2013-08-10 05:56:00,
2013-08-10 02:01:00,74.8,73.6,30.04,ESE,117,1.0,4.0,96,0.00,,,0.00,meteohub,2013-08-10 06:01:00,
2013-08-10 02:06:00,74.8,73.6,30.04,SE,126,1.0,4.0,96,0.00,,,0.00,meteohub,2013-08-10 06:06:00,
2013-08-10 02:11:00,74.8,73.6,30.04,SE,125,0.0,4.0,96,0.00,,,0.00,meteohub,2013-08-10 06:11:00,
2013-08-10 02:16:00,74.7,73.4,30.04,ENE,61,2.0,4.0,96,0.00,,,0.00,meteohub,2013-08-10 06:16:00,
2013-08-10 02:21:00,74.7,73.4,30.04,ESE,123,0.0,4.0,96,0.00,,,0.00,meteohub,2013-08-10 06:21:00,
2013-08-10 02:26:00,74.7,73.4,30.04,ESE,123,1.0,5.0,96,0.00,,,0.00,meteohub,2013-08-10 06:26:00,
2013-08-10 02:31:00,74.7,73.4,30.04,ESE,123,0.0,5.0,96,0.00,,,0.00,meteohub,2013-08-10 06:31:00,
2013-08-10 02:37:00,74.7,73.4,30.03,ESE,123,0.0,4.0,96,0.00,,,0.00,meteohub,2013-08-10 06:37:00,
2013-08-10 02:42:00,74.7,73.4,30.03,ESE,123,0.0,4.0,96,0.00,,,0.00,meteohub,2013-08-10 06:42:00,
2013-08-10 02:47:00,74.7,73.4,30.03,ESE,123,0.0,1.0,96,0.00,,,0.00,meteohub,2013-08-10 06:47:00,
2013-08-10 02:52:00,74.7,73.4,30.03,ESE,123,0.0,2.0,96,0.00,,,0.00,meteohub,2013-08-10 06:52:00,
2013-08-10 02:57:00,74.7,73.4,30.03,ESE,123,2.0,2.0,96,0.00,,,0.00,meteohub,2013-08-10 06:57:00,
2013-08-10 03:02:00,74.7,73.4,30.03,ESE,123,0.0,3.0,96,0.00,,,0.00,meteohub,2013-08-10 07:02:00,
2013-08-10 03:07:00,74.7,73.4,30.03,ESE,123,2.0,3.0,96,0.00,,,0.00,meteohub,2013-08-10 07:07:00,
2013-08-10 03:12:00,74.7,73.4,30.03,ESE,123,1.0,3.0,96,0.00,,,0.00,meteohub,2013-08-10 07:12:00,
2013-08-10 03:17:00,74.7,73.4,30.03,ESE,123,1.0,3.0,96,0.00,,,0.00,meteohub,2013-08-10 07:17:00,
2013-08-10 03:22:00,74.8,73.6,30.02,ESE,122,2.0,4.0,96,0.00,,,0.00,meteohub,2013-08-10 07:22:00,
2013-08-10 03:27:00,74.8,73.6,30.02,SE,131,3.0,5.0,96,0.00,,,0.00,meteohub,2013-08-10 07:27:00,
2013-08-10 03:32:00,74.8,73.6,30.02,SE,139,3.0,5.0,96,0.00,,,0.00,meteohub,2013-08-10 07:32:00,
2013-08-10 03:37:00,74.8,73.6,30.02,ESE,119,0.0,5.0,96,0.00,,,0.00,meteohub,2013-08-10 07:37:00,
2013-08-10 03:42:00,74.8,73.2,30.03,SE,135,2.0,4.0,95,0.00,,,0.00,meteohub,2013-08-10 07:42:00,
2013-08-10 03:47:00,74.8,73.2,30.03,SE,136,1.0,5.0,95,0.00,,,0.00,meteohub,2013-08-10 07:47:00,
2013-08-10 03:52:00,74.7,73.2,30.03,SE,136,1.0,5.0,95,0.00,,,0.00,meteohub,2013-08-10 07:52:00,
2013-08-10 03:57:00,74.7,73.4,30.03,SE,136,2.0,5.0,96,0.00,,,0.00,meteohub,2013-08-10 07:57:00,
2013-08-10 04:02:00,74.7,73.4,30.03,SE,136,2.0,4.0,96,0.00,,,0.00,meteohub,2013-08-10 08:02:00,
2013-08-10 04:07:00,74.7,73.4,30.03,SE,136,1.0,4.0,96,0.00,,,0.00,meteohub,2013-08-10 08:07:00,
2013-08-10 04:12:00,74.7,73.4,30.03,ESE,121,3.0,4.0,96,0.00,,,0.00,meteohub,2013-08-10 08:12:00,
2013-08-10 04:17:00,74.7,73.4,30.03,ESE,120,2.0,4.0,96,0.00,,,0.00,meteohub,2013-08-10 08:17:00,
2013-08-10 04:22:00,74.7,73.4,30.03,ESE,120,0.0,4.0,96,0.00,,,0.00,meteohub,2013-08-10 08:22:00,
2013-08-10 04:27:00,74.7,73.4,30.03,ESE,120,1.0,4.0,96,0.00,,,0.00,meteohub,2013-08-10 08:27:00,
2013-08-10 04:32:00,74.7,73.2,30.03,ESE,120,1.0,4.0,95,0.00,,,0.00,meteohub,2013-08-10 08:32:00,
2013-08-10 04:37:00,74.5,73.2,30.03,ESE,120,2.0,4.0,96,0.00,,,0.00,meteohub,2013-08-10 08:37:00,
2013-08-10 04:42:00,74.5,73.2,30.03,ESE,120,2.0,3.0,96,0.00,,,0.00,meteohub,2013-08-10 08:42:00,
2013-08-10 04:47:00,74.5,73.2,30.03,SE,126,3.0,3.0,96,0.00,,,0.00,meteohub,2013-08-10 08:47:00,
2013-08-10 04:52:00,74.5,73.2,30.03,SE,128,2.0,4.0,96,0.00,,,0.00,meteohub,2013-08-10 08:52:00,
2013-08-10 04:57:00,74.5,73.2,30.03,SE,128,2.0,4.0,96,0.00,,,0.00,meteohub,2013-08-10 08:57:00,
2013-08-10 05:02:00,74.5,73.2,30.03,SE,128,2.0,4.0,96,0.00,,,0.00,meteohub,2013-08-10 09:02:00,
2013-08-10 05:07:00,74.5,73.2,30.03,SE,128,0.0,4.0,96,0.00,,,0.00,meteohub,2013-08-10 09:07:00,
2013-08-10 05:12:00,74.5,73.2,30.03,SE,128,2.0,3.0,96,0.00,,,0.00,meteohub,2013-08-10 09:12:00,
2013-08-10 05:17:00,74.3,73.0,30.03,SE,128,1.0,3.0,96,0.00,,,0.00,meteohub,2013-08-10 09:17:00,
2013-08-10 05:22:00,74.5,73.2,30.03,SE,128,1.0,3.0,96,0.00,,,0.00,meteohub,2013-08-10 09:22:00,
2013-08-10 05:27:00,74.5,73.2,30.03,SE,128,1.0,3.0,96,0.00,,,0.00,meteohub,2013-08-10 09:27:00,
2013-08-10 05:32:00,74.5,73.2,30.03,SE,128,1.0,3.0,96,0.00,,,0.00,meteohub,2013-08-10 09:32:00,
2013-08-10 05:37:00,74.3,73.0,30.03,SE,128,2.0,4.0,96,0.00,,,0.00,meteohub,2013-08-10 09:37:00,
2013-08-10 05:42:00,74.1,72.9,30.03,SE,128,1.0,4.0,96,0.00,,,0.00,meteohub,2013-08-10 09:42:00,
2013-08-10 05:47:00,74.3,73.0,30.03,SE,128,2.0,4.0,96,0.00,,,0.00,meteohub,2013-08-10 09:47:00,
2013-08-10 05:52:00,74.1,72.9,30.03,SE,128,2.0,4.0,96,0.00,,,0.00,meteohub,2013-08-10 09:52:00,
2013-08-10 05:57:00,74.1,72.9,30.04,SE,128,1.0,3.0,96,0.00,,,0.00,meteohub,2013-08-10 09:57:00,
2013-08-10 06:02:00,74.1,72.9,30.04,SE,128,1.0,5.0,96,0.00,,,0.00,meteohub,2013-08-10 10:02:00,
2013-08-10 06:07:00,74.1,72.9,30.04,SE,128,3.0,5.0,96,0.00,,,0.00,meteohub,2013-08-10 10:07:00,
2013-08-10 06:12:00,74.3,73.0,30.04,SE,128,1.0,5.0,96,0.00,,,0.00,meteohub,2013-08-10 10:12:00,
2013-08-10 06:17:00,74.5,73.2,30.04,SE,128,3.0,4.0,96,0.00,,,0.00,meteohub,2013-08-10 10:17:00,
2013-08-10 06:22:00,74.5,73.0,30.04,SE,128,3.0,4.0,95,0.00,,,0.00,meteohub,2013-08-10 10:22:00,
2013-08-10 06:27:00,74.5,73.0,30.04,SE,131,3.0,4.0,95,0.00,,,0.00,meteohub,2013-08-10 10:27:00,
2013-08-10 06:32:00,74.5,73.2,30.04,SE,131,0.0,4.0,96,0.00,,,0.00,meteohub,2013-08-10 10:32:00,
2013-08-10 06:37:00,74.5,73.0,30.04,SE,131,1.0,4.0,95,0.00,,,0.00,meteohub,2013-08-10 10:37:00,
2013-08-10 06:42:00,74.5,73.0,30.04,SE,129,4.0,4.0,95,0.00,,,0.00,meteohub,2013-08-10 10:42:00,
2013-08-10 06:47:00,74.5,73.2,30.04,SE,125,3.0,5.0,96,0.00,,,0.00,meteohub,2013-08-10 10:47:00,
2013-08-10 06:52:00,74.5,73.2,30.04,SE,125,3.0,5.0,96,0.00,,,0.00,meteohub,2013-08-10 10:52:00,
2013-08-10 06:57:00,74.7,73.2,30.04,SE,124,2.0,5.0,95,0.00,,,0.00,meteohub,2013-08-10 10:57:00,
2013-08-10 07:02:00,74.7,73.2,30.04,SE,124,2.0,5.0,95,0.00,,,0.00,meteohub,2013-08-10 11:02:00,
2013-08-10 07:07:00,74.8,73.2,30.04,ESE,123,2.0,5.0,95,0.00,,,0.00,meteohub,2013-08-10 11:07:00,
2013-08-10 07:12:00,74.8,73.2,30.04,ESE,123,3.0,5.0,95,0.00,,,0.00,meteohub,2013-08-10 11:12:00,
2013-08-10 07:17:00,74.8,73.2,30.04,ESE,123,2.0,4.0,95,0.00,,,0.00,meteohub,2013-08-10 11:17:00,
2013-08-10 07:22:00,74.8,73.2,30.04,ESE,123,2.0,4.0,95,0.00,,,0.00,meteohub,2013-08-10 11:22:00,
2013-08-10 07:27:00,75.0,73.4,30.04,SE,128,2.0,7.0,95,0.00,,,0.00,meteohub,2013-08-10 11:27:00,
2013-08-10 07:32:00,75.0,73.4,30.04,SE,125,4.0,7.0,95,0.00,,,0.00,meteohub,2013-08-10 11:32:00,
2013-08-10 07:37:00,75.2,73.6,30.05,SE,127,3.0,7.0,95,0.00,,,0.00,meteohub,2013-08-10 11:37:00,
2013-08-10 07:42:00,75.6,73.9,30.05,ESE,107,7.0,7.0,95,0.00,,,0.00,meteohub,2013-08-10 11:42:00,
2013-08-10 07:47:00,75.7,74.1,30.05,ESE,105,7.0,7.0,95,0.00,,,0.00,meteohub,2013-08-10 11:47:00,
2013-08-10 07:52:00,76.3,74.5,30.06,SE,133,3.0,8.0,94,0.00,,,0.00,meteohub,2013-08-10 11:52:00,
2013-08-10 07:57:00,76.5,74.7,30.06,SE,125,2.0,8.0,94,0.00,,,0.00,meteohub,2013-08-10 11:57:00,
2013-08-10 08:02:00,76.8,74.7,30.06,SE,129,4.0,8.0,93,0.00,,,0.00,meteohub,2013-08-10 12:02:00,
2013-08-10 08:07:00,77.2,75.0,30.06,ESE,121,3.0,10.0,93,0.00,,,0.00,meteohub,2013-08-10 12:07:00,
2013-08-10 08:12:00,77.4,74.8,30.06,East,98,5.0,10.0,92,0.00,,,0.00,meteohub,2013-08-10 12:12:00,
2013-08-10 08:17:00,77.7,74.8,30.06,ESE,119,5.0,10.0,91,0.00,,,0.00,meteohub,2013-08-10 12:17:00,
2013-08-10 08:22:00,77.9,75.0,30.06,SE,139,0.0,11.0,91,0.00,,,0.00,meteohub,2013-08-10 12:22:00,
2013-08-10 08:27:00,78.3,75.4,30.06,SE,132,2.0,11.0,91,0.00,,,0.00,meteohub,2013-08-10 12:27:00,
2013-08-10 08:32:00,78.6,75.4,30.07,ESE,102,2.0,11.0,90,0.00,,,0.00,meteohub,2013-08-10 12:32:00,
2013-08-10 08:37:00,78.8,75.2,30.07,East,100,5.0,8.0,89,0.00,,,0.00,meteohub,2013-08-10 12:37:00,
2013-08-10 08:42:00,79.0,75.4,30.07,ESE,117,5.0,10.0,89,0.00,,,0.00,meteohub,2013-08-10 12:42:00,
2013-08-10 08:47:00,78.8,75.0,30.07,South,179,3.0,11.0,88,0.00,,,0.00,meteohub,2013-08-10 12:47:00,
2013-08-10 08:52:00,79.0,75.2,30.08,SE,129,5.0,13.0,88,0.00,,,0.00,meteohub,2013-08-10 12:52:00,
2013-08-10 08:57:00,79.2,75.4,30.08,SSW,192,3.0,13.0,88,0.00,,,0.00,meteohub,2013-08-10 12:57:00,
2013-08-10 09:02:00,79.2,75.4,30.08,South,173,4.0,12.0,88,0.00,,,0.00,meteohub,2013-08-10 13:02:00,
2013-08-10 09:07:00,79.2,75.0,30.08,South,176,4.0,13.0,87,0.00,,,0.00,meteohub,2013-08-10 13:07:00,
2013-08-10 09:12:00,79.3,75.2,30.07,SE,125,5.0,13.0,87,0.00,,,0.00,meteohub,2013-08-10 13:12:00,
2013-08-10 09:17:00,79.7,75.2,30.07,ESE,121,10.0,11.0,86,0.00,,,0.00,meteohub,2013-08-10 13:17:00,
2013-08-10 09:22:00,80.1,75.9,30.07,SSE,162,5.0,12.0,87,0.00,,,0.00,meteohub,2013-08-10 13:22:00,
2013-08-10 09:27:00,80.2,75.7,30.07,SSE,149,4.0,12.0,86,0.00,,,0.00,meteohub,2013-08-10 13:27:00,
2013-08-10 09:32:00,80.8,75.9,30.07,ESE,112,3.0,11.0,85,0.00,,,0.00,meteohub,2013-08-10 13:32:00,
2013-08-10 09:37:00,81.1,75.9,30.07,SE,132,6.0,11.0,84,0.00,,,0.00,meteohub,2013-08-10 13:37:00,
2013-08-10 09:42:00,81.3,75.7,30.07,SE,143,5.0,11.0,83,0.00,,,0.00,meteohub,2013-08-10 13:42:00,
2013-08-10 09:47:00,81.5,75.9,30.07,SSE,162,3.0,11.0,83,0.00,,,0.00,meteohub,2013-08-10 13:47:00,
2013-08-10 09:52:00,81.7,75.6,30.08,SSE,152,6.0,13.0,82,0.00,,,0.00,meteohub,2013-08-10 13:52:00,
2013-08-10 09:57:00,81.9,75.7,30.07,SSW,211,6.0,13.0,82,0.00,,,0.00,meteohub,2013-08-10 13:57:00,
2013-08-10 10:02:00,81.7,75.6,30.07,SE,125,6.0,15.0,82,0.00,,,0.00,meteohub,2013-08-10 14:02:00,
2013-08-10 10:07:00,82.2,75.7,30.08,SSE,155,8.0,15.0,81,0.00,,,0.00,meteohub,2013-08-10 14:07:00,
2013-08-10 10:12:00,82.2,75.4,30.08,ESE,115,11.0,16.0,80,0.00,,,0.00,meteohub,2013-08-10 14:12:00,
2013-08-10 10:17:00,82.6,75.7,30.08,South,171,2.0,16.0,80,0.00,,,0.00,meteohub,2013-08-10 14:17:00,
2013-08-10 10:22:00,83.3,76.1,30.08,SE,139,7.0,16.0,79,0.00,,,0.00,meteohub,2013-08-10 14:22:00,
2013-08-10 10:27:00,83.5,76.3,30.08,ESE,112,3.0,16.0,79,0.00,,,0.00,meteohub,2013-08-10 14:27:00,
2013-08-10 10:32:00,83.8,76.3,30.08,ESE,105,4.0,11.0,78,0.00,,,0.00,meteohub,2013-08-10 14:32:00,
2013-08-10 10:37:00,83.8,75.9,30.08,ESE,107,3.0,14.0,77,0.00,,,0.00,meteohub,2013-08-10 14:37:00,
2013-08-10 10:42:00,83.7,75.7,30.08,ESE,115,12.0,14.0,77,0.00,,,0.00,meteohub,2013-08-10 14:42:00,
2013-08-10 10:47:00,83.7,75.7,30.09,ESE,123,8.0,14.0,77,0.00,,,0.00,meteohub,2013-08-10 14:47:00,
2013-08-10 10:52:00,83.7,75.7,30.09,SSE,153,3.0,14.0,77,0.00,,,0.00,meteohub,2013-08-10 14:52:00,
2013-08-10 10:57:00,83.7,76.1,30.09,ESE,119,8.0,14.0,78,0.00,,,0.00,meteohub,2013-08-10 14:57:00,
2013-08-10 11:02:00,84.6,76.1,30.09,ESE,119,7.0,13.0,76,0.00,,,0.00,meteohub,2013-08-10 15:02:00,
2013-08-10 11:07:00,84.9,76.8,30.09,South,187,2.0,13.0,77,0.00,,,0.00,meteohub,2013-08-10 15:07:00,
2013-08-10 11:12:00,84.9,76.5,30.09,SSE,154,3.0,13.0,76,0.00,,,0.00,meteohub,2013-08-10 15:12:00,
2013-08-10 11:17:00,85.5,76.6,30.09,ESE,121,5.0,13.0,75,0.00,,,0.00,meteohub,2013-08-10 15:17:00,
2013-08-10 11:22:00,85.3,76.1,30.09,SSE,157,4.0,8.0,74,0.00,,,0.00,meteohub,2013-08-10 15:22:00,
2013-08-10 11:27:00,85.5,75.7,30.09,East,96,8.0,13.0,73,0.00,,,0.00,meteohub,2013-08-10 15:27:00,
2013-08-10 11:32:00,85.6,75.6,30.09,SE,133,2.0,15.0,72,0.00,,,0.00,meteohub,2013-08-10 15:32:00,
2013-08-10 11:37:00,85.6,75.6,30.09,South,175,6.0,15.0,72,0.00,,,0.00,meteohub,2013-08-10 15:37:00,
2013-08-10 11:42:00,85.6,75.6,30.09,SE,141,5.0,12.0,72,0.00,,,0.00,meteohub,2013-08-10 15:42:00,
2013-08-10 11:48:00,86.0,75.0,30.09,South,184,9.0,13.0,70,0.00,,,0.00,meteohub,2013-08-10 15:48:00,
2013-08-10 11:53:00,86.0,75.0,30.09,SSW,208,6.0,13.0,70,0.00,,,0.00,meteohub,2013-08-10 15:53:00,
2013-08-10 11:58:00,86.2,75.7,30.09,ESE,119,3.0,13.0,71,0.00,,,0.00,meteohub,2013-08-10 15:58:00,
2013-08-10 12:03:00,86.5,75.2,30.09,South,189,3.0,12.0,69,0.00,,,0.00,meteohub,2013-08-10 16:03:00,
2013-08-10 12:08:00,86.4,75.0,30.09,East,101,7.0,12.0,69,0.00,,,0.00,meteohub,2013-08-10 16:08:00,
2013-08-10 12:13:00,86.7,74.8,30.09,SE,138,5.0,12.0,68,0.00,,,0.00,meteohub,2013-08-10 16:13:00,
2013-08-10 12:18:00,86.7,74.8,30.09,SE,145,6.0,12.0,68,0.00,,,0.00,meteohub,2013-08-10 16:18:00,
2013-08-10 12:23:00,87.1,74.8,30.09,ESE,113,7.0,11.0,67,0.00,,,0.00,meteohub,2013-08-10 16:23:00,
2013-08-10 12:28:00,87.4,74.7,30.09,East,99,3.0,11.0,66,0.00,,,0.00,meteohub,2013-08-10 16:28:00,
2013-08-10 12:33:00,86.7,74.5,30.09,ESE,115,3.0,14.0,67,0.00,,,0.00,meteohub,2013-08-10 16:33:00,
2013-08-10 12:38:00,86.9,73.2,30.09,SE,124,8.0,15.0,64,0.00,,,0.00,meteohub,2013-08-10 16:38:00,
2013-08-10 12:43:00,87.1,75.2,30.09,SE,124,3.0,15.0,68,0.00,,,0.00,meteohub,2013-08-10 16:43:00,
2013-08-10 12:48:00,87.4,74.7,30.09,ESE,114,5.0,15.0,66,0.00,,,0.00,meteohub,2013-08-10 16:48:00,
2013-08-10 12:53:00,87.3,73.0,30.09,SSE,159,4.0,11.0,63,0.00,,,0.00,meteohub,2013-08-10 16:53:00,
2013-08-10 12:58:00,87.3,73.6,30.09,SSW,196,1.0,11.0,64,0.00,,,0.00,meteohub,2013-08-10 16:58:00,
2013-08-10 13:04:00,87.4,73.8,30.09,SSE,164,6.0,10.0,64,0.00,,,0.00,meteohub,2013-08-10 17:04:00,
2013-08-10 13:09:00,87.6,73.9,30.09,South,186,6.0,10.0,64,0.00,,,0.00,meteohub,2013-08-10 17:09:00,
2013-08-10 13:14:00,88.0,73.8,30.09,SSW,192,9.0,10.0,63,0.00,,,0.00,meteohub,2013-08-10 17:14:00,
2013-08-10 13:19:00,88.2,74.5,30.09,SE,133,4.0,16.0,64,0.00,,,0.00,meteohub,2013-08-10 17:19:00,
2013-08-10 13:24:00,88.2,73.9,30.09,ESE,110,4.0,16.0,63,0.00,,,0.00,meteohub,2013-08-10 17:24:00,
2013-08-10 13:29:00,88.5,73.8,30.09,SE,126,7.0,13.0,62,0.00,,,0.00,meteohub,2013-08-10 17:29:00,
2013-08-10 13:34:00,88.5,73.8,30.09,South,188,4.0,13.0,62,0.00,,,0.00,meteohub,2013-08-10 17:34:00,
2013-08-10 13:39:00,88.5,74.3,30.09,SE,134,3.0,11.0,63,0.00,,,0.00,meteohub,2013-08-10 17:39:00,
2013-08-10 13:44:00,88.2,73.4,30.09,South,188,5.0,11.0,62,0.00,,,0.00,meteohub,2013-08-10 17:44:00,
2013-08-10 13:49:00,88.0,73.8,30.09,South,186,6.0,12.0,63,0.00,,,0.00,meteohub,2013-08-10 17:49:00,
2013-08-10 13:54:00,88.3,73.6,30.08,SSE,152,5.0,12.0,62,0.00,,,0.00,meteohub,2013-08-10 17:54:00,
2013-08-10 13:59:00,88.3,73.6,30.09,South,185,2.0,12.0,62,0.00,,,0.00,meteohub,2013-08-10 17:59:00,
2013-08-10 14:04:00,88.0,73.8,30.08,ESE,103,0.0,10.0,63,0.00,,,0.00,meteohub,2013-08-10 18:04:00,
2013-08-10 14:09:00,88.0,73.8,30.08,SSW,192,4.0,14.0,63,0.00,,,0.00,meteohub,2013-08-10 18:09:00,
2013-08-10 14:14:00,88.0,73.8,30.08,South,176,2.0,14.0,63,0.00,,,0.00,meteohub,2013-08-10 18:14:00,
2013-08-10 14:19:00,88.3,74.1,30.07,SSW,208,2.0,6.0,63,0.00,,,0.00,meteohub,2013-08-10 18:19:00,
2013-08-10 14:25:00,88.3,74.7,30.07,SSW,205,4.0,6.0,64,0.00,,,0.00,meteohub,2013-08-10 18:25:00,
2013-08-10 14:30:00,89.1,74.3,30.06,SSW,207,4.0,8.0,62,0.00,,,0.00,meteohub,2013-08-10 18:30:00,
2013-08-10 14:35:00,88.7,74.5,30.06,SSW,195,1.0,8.0,63,0.00,,,0.00,meteohub,2013-08-10 18:35:00,
2013-08-10 14:40:00,88.9,74.1,30.05,South,188,3.0,8.0,62,0.00,,,0.00,meteohub,2013-08-10 18:40:00,
2013-08-10 14:45:00,89.4,73.8,30.05,ESE,113,3.0,7.0,60,0.00,,,0.00,meteohub,2013-08-10 18:45:00,
2013-08-10 14:50:00,90.0,74.1,30.04,ESE,111,1.0,7.0,60,0.00,,,0.00,meteohub,2013-08-10 18:50:00,
2013-08-10 14:55:00,90.9,74.5,30.04,South,180,3.0,8.0,59,0.00,,,0.00,meteohub,2013-08-10 18:55:00,
2013-08-10 15:00:00,91.4,75.0,30.04,ESE,115,4.0,13.0,59,0.00,,,0.00,meteohub,2013-08-10 19:00:00,
2013-08-10 15:05:00,92.7,75.2,30.04,WNW,297,2.0,13.0,57,0.00,,,0.00,meteohub,2013-08-10 19:05:00,
2013-08-10 15:10:00,93.9,75.2,30.04,ENE,60,0.0,13.0,55,0.00,,,0.00,meteohub,2013-08-10 19:10:00,
2013-08-10 15:15:00,93.7,73.9,30.04,NNE,22,1.0,10.0,53,0.00,,,0.00,meteohub,2013-08-10 19:15:00,
2013-08-10 15:20:00,94.1,74.8,30.04,SSE,147,1.0,10.0,54,0.00,,,0.00,meteohub,2013-08-10 19:20:00,
2013-08-10 15:25:00,94.6,74.3,30.04,ESE,107,4.0,10.0,52,0.00,,,0.00,meteohub,2013-08-10 19:25:00,
2013-08-10 15:30:00,93.9,74.1,30.04,SE,137,2.0,7.0,53,0.00,,,0.00,meteohub,2013-08-10 19:30:00,
2013-08-10 15:36:00,92.1,72.5,30.04,ESE,123,3.0,10.0,53,0.00,,,0.00,meteohub,2013-08-10 19:36:00,
2013-08-10 15:41:00,91.6,72.5,30.03,SE,126,2.0,10.0,54,0.00,,,0.00,meteohub,2013-08-10 19:41:00,
2013-08-10 15:46:00,92.1,73.6,30.03,SE,137,5.0,10.0,55,0.00,,,0.00,meteohub,2013-08-10 19:46:00,
2013-08-10 15:51:00,92.8,73.8,30.03,ENE,68,2.0,8.0,54,0.00,,,0.00,meteohub,2013-08-10 19:51:00,
2013-08-10 15:56:00,93.2,74.7,30.03,NE,36,3.0,8.0,55,0.00,,,0.00,meteohub,2013-08-10 19:56:00,
2013-08-10 16:01:00,94.3,73.4,30.03,SE,137,2.0,10.0,51,0.00,,,0.00,meteohub,2013-08-10 20:01:00,
2013-08-10 16:06:00,94.5,73.6,30.03,ENE,59,2.0,10.0,51,0.00,,,0.00,meteohub,2013-08-10 20:06:00,
2013-08-10 16:11:00,93.9,73.0,30.02,ESE,120,1.0,7.0,51,0.00,,,0.00,meteohub,2013-08-10 20:11:00,
2013-08-10 16:16:00,93.7,73.9,30.02,ESE,119,4.0,6.0,53,0.00,,,0.00,meteohub,2013-08-10 20:16:00,
2013-08-10 16:21:00,92.5,73.4,30.02,SSE,161,3.0,9.0,54,0.00,,,0.00,meteohub,2013-08-10 20:21:00,
2013-08-10 16:26:00,91.8,72.7,30.02,ENE,59,0.0,10.0,54,0.00,,,0.00,meteohub,2013-08-10 20:26:00,
2013-08-10 16:31:00,91.2,72.9,30.02,East,89,2.0,11.0,55,0.00,,,0.00,meteohub,2013-08-10 20:31:00,
2013-08-10 16:36:00,91.8,74.3,30.02,NNE,24,5.0,11.0,57,0.00,,,0.00,meteohub,2013-08-10 20:36:00,
2013-08-10 16:42:00,92.5,73.4,30.02,ESE,114,1.0,9.0,54,0.00,,,0.00,meteohub,2013-08-10 20:42:00,
2013-08-10 16:47:00,92.8,72.7,30.02,SSE,165,5.0,9.0,52,0.00,,,0.00,meteohub,2013-08-10 20:47:00,
2013-08-10 16:52:00,91.8,73.2,30.02,ESE,108,4.0,10.0,55,0.00,,,0.00,meteohub,2013-08-10 20:52:00,
2013-08-10 16:57:00,91.0,73.2,30.02,ESE,123,4.0,11.0,56,0.00,,,0.00,meteohub,2013-08-10 20:57:00,
2013-08-10 17:02:00,90.7,73.4,30.01,South,176,0.0,11.0,57,0.00,,,0.00,meteohub,2013-08-10 21:02:00,
2013-08-10 17:07:00,90.9,73.6,30.01,South,184,2.0,11.0,57,0.00,,,0.00,meteohub,2013-08-10 21:07:00,
2013-08-10 17:12:00,91.2,76.3,30.01,SSW,202,0.0,9.0,62,0.00,,,0.00,meteohub,2013-08-10 21:12:00,
2013-08-10 17:17:00,91.0,76.6,30.01,SE,146,0.0,6.0,63,0.00,,,0.00,meteohub,2013-08-10 21:17:00,
2013-08-10 17:22:00,91.2,76.8,30.01,ENE,72,0.0,5.0,63,0.00,,,0.00,meteohub,2013-08-10 21:22:00,
2013-08-10 17:27:00,91.2,74.8,30.01,East,100,5.0,5.0,59,0.00,,,0.00,meteohub,2013-08-10 21:27:00,
2013-08-10 17:32:00,91.2,75.4,30.01,SE,135,2.0,8.0,60,0.00,,,0.00,meteohub,2013-08-10 21:32:00,
2013-08-10 17:37:00,91.8,75.4,30.01,ENE,78,4.0,10.0,59,0.00,,,0.00,meteohub,2013-08-10 21:37:00,
2013-08-10 17:42:00,91.0,75.7,30.01,ESE,119,4.0,10.0,61,0.00,,,0.00,meteohub,2013-08-10 21:42:00,
2013-08-10 17:47:00,91.6,75.7,30.01,ESE,110,5.0,14.0,60,0.00,,,0.00,meteohub,2013-08-10 21:47:00,
2013-08-10 17:52:00,91.8,75.4,30.01,ESE,113,1.0,14.0,59,0.00,,,0.00,meteohub,2013-08-10 21:52:00,
2013-08-10 17:57:00,92.3,75.4,30.01,East,98,2.0,13.0,58,0.00,,,0.00,meteohub,2013-08-10 21:57:00,
2013-08-10 18:02:00,91.6,73.6,30.01,SE,138,2.0,12.0,56,0.00,,,0.00,meteohub,2013-08-10 22:02:00,
2013-08-10 18:07:00,90.9,74.1,30.01,SE,127,3.0,13.0,58,0.00,,,0.00,meteohub,2013-08-10 22:07:00,
2013-08-10 18:12:00,90.7,74.3,30.01,NE,51,3.0,13.0,59,0.00,,,0.00,meteohub,2013-08-10 22:12:00,
2013-08-10 18:17:00,90.1,73.9,30.01,ESE,105,0.0,13.0,59,0.00,,,0.00,meteohub,2013-08-10 22:17:00,
2013-08-10 18:22:00,89.2,74.5,30.02,SSE,165,12.0,12.0,62,0.00,,,0.00,meteohub,2013-08-10 22:22:00,
2013-08-10 18:27:00,88.0,74.7,30.02,South,188,3.0,13.0,65,0.00,,,0.00,meteohub,2013-08-10 22:27:00,
2013-08-10 18:32:00,87.3,75.0,30.02,SE,134,4.0,13.0,67,0.00,,,0.00,meteohub,2013-08-10 22:32:00,
2013-08-10 18:37:00,87.3,75.9,30.02,SSW,211,1.0,13.0,69,0.00,,,0.00,meteohub,2013-08-10 22:37:00,
2013-08-10 18:43:00,87.6,76.6,30.02,WNW,291,5.0,9.0,70,0.00,,,0.00,meteohub,2013-08-10 22:43:00,
2013-08-10 18:48:00,87.8,77.2,30.02,WSW,250,2.0,8.0,71,0.00,,,0.00,meteohub,2013-08-10 22:48:00,
2013-08-10 18:53:00,87.4,77.4,30.02,NW,305,2.0,5.0,72,0.00,,,0.00,meteohub,2013-08-10 22:53:00,
2013-08-10 18:58:00,87.1,77.0,30.02,WNW,298,0.0,5.0,72,0.00,,,0.00,meteohub,2013-08-10 22:58:00,
2013-08-10 19:03:00,86.5,77.2,30.02,WNW,288,2.0,6.0,74,0.00,,,0.00,meteohub,2013-08-10 23:03:00,
2013-08-10 19:08:00,86.2,77.0,30.02,WNW,288,2.0,6.0,74,0.00,,,0.00,meteohub,2013-08-10 23:08:00,
2013-08-10 19:13:00,86.2,77.0,30.02,WNW,288,1.0,6.0,74,0.00,,,0.00,meteohub,2013-08-10 23:13:00,
2013-08-10 19:18:00,86.2,77.4,30.02,NW,313,3.0,5.0,75,0.00,,,0.00,meteohub,2013-08-10 23:18:00,
2013-08-10 19:23:00,86.2,77.4,30.02,NW,317,2.0,6.0,75,0.00,,,0.00,meteohub,2013-08-10 23:23:00,
2013-08-10 19:28:00,86.2,77.4,30.02,NW,315,2.0,6.0,75,0.00,,,0.00,meteohub,2013-08-10 23:28:00,
2013-08-10 19:33:00,86.2,77.7,30.02,NW,315,0.0,6.0,76,0.00,,,0.00,meteohub,2013-08-10 23:33:00,
2013-08-10 19:38:00,86.2,78.1,30.02,NW,315,0.0,6.0,77,0.00,,,0.00,meteohub,2013-08-10 23:38:00,
2013-08-10 19:43:00,86.2,77.7,30.03,NW,315,3.0,4.0,76,0.00,,,0.00,meteohub,2013-08-10 23:43:00,
2013-08-10 19:48:00,86.0,77.5,30.03,NW,315,2.0,3.0,76,0.00,,,0.00,meteohub,2013-08-10 23:48:00,
2013-08-10 19:54:00,85.8,77.0,30.03,NW,324,2.0,4.0,75,0.00,,,0.00,meteohub,2013-08-10 23:54:00,
2013-08-10 19:59:00,85.6,77.2,30.03,NW,322,1.0,7.0,76,0.00,,,0.00,meteohub,2013-08-10 23:59:00,
2013-08-10 20:04:00,85.6,77.2,30.03,NW,322,1.0,7.0,76,0.00,,,0.00,meteohub,2013-08-11 00:04:00,
2013-08-10 20:09:00,85.5,77.4,30.03,NW,322,1.0,7.0,77,0.00,,,0.00,meteohub,2013-08-11 00:09:00,
2013-08-10 20:14:00,85.3,77.2,30.03,NW,322,2.0,5.0,77,0.00,,,0.00,meteohub,2013-08-11 00:14:00,
2013-08-10 20:19:00,84.9,76.8,30.03,NW,322,2.0,5.0,77,0.00,,,0.00,meteohub,2013-08-11 00:19:00,
2013-08-10 20:24:00,84.7,76.6,30.04,NW,322,1.0,5.0,77,0.00,,,0.00,meteohub,2013-08-11 00:24:00,
2013-08-10 20:29:00,84.7,77.2,30.04,NW,322,0.0,5.0,78,0.00,,,0.00,meteohub,2013-08-11 00:29:00,
2013-08-10 20:34:00,84.6,77.0,30.04,NW,322,1.0,5.0,78,0.00,,,0.00,meteohub,2013-08-11 00:34:00,
2013-08-10 20:39:00,84.6,77.0,30.04,NW,322,1.0,3.0,78,0.00,,,0.00,meteohub,2013-08-11 00:39:00,
2013-08-10 20:44:00,84.4,76.5,30.04,NW,322,2.0,4.0,77,0.00,,,0.00,meteohub,2013-08-11 00:44:00,
2013-08-10 20:49:00,84.4,76.5,30.04,NW,322,0.0,4.0,77,0.00,,,0.00,meteohub,2013-08-11 00:49:00,
2013-08-10 20:54:00,84.4,76.8,30.04,NW,322,1.0,4.0,78,0.00,,,0.00,meteohub,2013-08-11 00:54:00,
2013-08-10 20:59:00,84.2,76.6,30.04,NW,322,0.0,4.0,78,0.00,,,0.00,meteohub,2013-08-11 00:59:00,
2013-08-10 21:04:00,84.0,76.5,30.05,NW,322,1.0,4.0,78,0.00,,,0.00,meteohub,2013-08-11 01:04:00,
2013-08-10 21:10:00,84.0,76.5,30.04,NW,322,0.0,3.0,78,0.00,,,0.00,meteohub,2013-08-11 01:10:00,
2013-08-10 21:15:00,83.8,76.6,30.05,NW,322,0.0,3.0,79,0.00,,,0.00,meteohub,2013-08-11 01:15:00,
2013-08-10 21:20:00,83.8,77.0,30.05,NW,322,0.0,2.0,80,0.00,,,0.00,meteohub,2013-08-11 01:20:00,
2013-08-10 21:25:00,83.7,76.5,30.05,NW,322,0.0,2.0,79,0.00,,,0.00,meteohub,2013-08-11 01:25:00,
2013-08-10 21:30:00,83.7,76.8,30.05,NW,322,1.0,2.0,80,0.00,,,0.00,meteohub,2013-08-11 01:30:00,
2013-08-10 21:35:00,83.5,76.6,30.05,NW,322,1.0,3.0,80,0.00,,,0.00,meteohub,2013-08-11 01:35:00,
2013-08-10 21:40:00,83.5,76.6,30.05,NW,322,1.0,3.0,80,0.00,,,0.00,meteohub,2013-08-11 01:40:00,
2013-08-10 21:45:00,83.3,76.5,30.05,NW,322,1.0,3.0,80,0.00,,,0.00,meteohub,2013-08-11 01:45:00,
2013-08-10 21:50:00,83.1,76.6,30.06,NW,322,1.0,3.0,81,0.00,,,0.00,meteohub,2013-08-11 01:50:00,
2013-08-10 21:55:00,83.1,76.6,30.06,NW,322,2.0,3.0,81,0.00,,,0.00,meteohub,2013-08-11 01:55:00,
2013-08-10 22:00:00,83.1,76.6,30.06,NW,322,3.0,4.0,81,0.00,,,0.00,meteohub,2013-08-11 02:00:00,
2013-08-10 22:05:00,83.1,76.6,30.06,NW,324,0.0,4.0,81,0.00,,,0.00,meteohub,2013-08-11 02:05:00,
2013-08-10 22:10:00,82.9,76.5,30.06,NW,324,1.0,4.0,81,0.00,,,0.00,meteohub,2013-08-11 02:10:00,
2013-08-10 22:15:00,82.9,76.5,30.06,NW,324,1.0,4.0,81,0.00,,,0.00,meteohub,2013-08-11 02:15:00,
2013-08-10 22:20:00,82.9,76.5,30.06,NW,324,3.0,4.0,81,0.00,,,0.00,meteohub,2013-08-11 02:20:00,
2013-08-10 22:26:00,82.9,76.5,30.06,NW,324,2.0,4.0,81,0.00,,,0.00,meteohub,2013-08-11 02:26:00,
2013-08-10 22:31:00,82.9,76.5,30.07,NW,324,0.0,4.0,81,0.00,,,0.00,meteohub,2013-08-11 02:31:00,
2013-08-10 22:36:00,82.9,76.5,30.07,NW,324,0.0,4.0,81,0.00,,,0.00,meteohub,2013-08-11 02:36:00,
2013-08-10 22:41:00,82.9,76.5,30.07,NW,324,1.0,4.0,81,0.00,,,0.00,meteohub,2013-08-11 02:41:00,
2013-08-10 22:46:00,82.9,76.5,30.07,NW,324,0.0,3.0,81,0.00,,,0.00,meteohub,2013-08-11 02:46:00,
2013-08-10 22:51:00,82.9,76.1,30.08,NW,324,2.0,3.0,80,0.00,,,0.00,meteohub,2013-08-11 02:51:00,
2013-08-10 22:56:00,83.3,76.5,30.08,South,191,2.0,3.0,80,0.00,,,0.00,meteohub,2013-08-11 02:56:00,
2013-08-10 23:02:00,83.7,76.5,30.08,South,184,2.0,7.0,79,0.00,,,0.00,meteohub,2013-08-11 03:02:00,
2013-08-10 23:07:00,84.0,76.5,30.08,South,180,3.0,7.0,78,0.00,,,0.00,meteohub,2013-08-11 03:07:00,
2013-08-10 23:12:00,84.0,76.5,30.08,South,180,0.0,7.0,78,0.00,,,0.00,meteohub,2013-08-11 03:12:00,
2013-08-10 23:17:00,83.8,76.3,30.08,South,180,1.0,7.0,78,0.00,,,0.00,meteohub,2013-08-11 03:17:00,
2013-08-10 23:22:00,83.7,76.5,30.08,South,173,2.0,3.0,79,0.00,,,0.00,meteohub,2013-08-11 03:22:00,
2013-08-10 23:28:00,83.1,76.6,30.08,South,173,0.0,3.0,81,0.00,,,0.00,meteohub,2013-08-11 03:28:00,
2013-08-10 23:33:00,82.9,76.8,30.08,South,173,2.0,3.0,82,0.00,,,0.00,meteohub,2013-08-11 03:33:00,
2013-08-10 23:38:00,82.8,77.0,30.08,South,173,1.0,3.0,83,0.00,,,0.00,meteohub,2013-08-11 03:38:00,
2013-08-10 23:43:00,82.6,76.5,30.09,South,173,1.0,3.0,82,0.00,,,0.00,meteohub,2013-08-11 03:43:00,
2013-08-10 23:49:00,82.6,76.8,30.09,South,173,0.0,3.0,83,0.00,,,0.00,meteohub,2013-08-11 03:49:00,
2013-08-10 23:54:00,82.4,76.6,30.09,South,172,0.0,2.0,83,0.00,,,0.00,meteohub,2013-08-11 03:54:00,
2013-08-10 23:59:00,82.2,76.5,30.09,South,172,0.0,3.0,83,0.00,,,0.00,meteohub,2013-08-11 03:59:00,